Regional Weather Roundup
Issued by NWS Wakefield, VA

Home | Current Version | Previous Version | Text Only | Print | Product List | Glossary On
Versions: 1 2 3 4 5 6 7 8 9 10 11 12 13 14 15 16 17 18 19 20 21 22 23 24 25 26 27 28 29 30 31 32 33 34 35 36 37 38 39 40 41 42 43 44 45 46 47 48 49 50
000
ASUS41 KAKQ 290715
RWRAKQ

REGIONAL WEATHER ROUNDUP
NATIONAL WEATHER SERVICE WAKEFIELD VA
300 AM EDT WED MAR 29 2017

Note: "fair" indicates few or no clouds below 12,000 feet with no
significant weather and/or obstructions to visibility. * = Denotes
station may not report precipitation (e.g., rain,snow,etc.),
thunder or fog.

VAZ042-051-052>054-056-290800-
NORTHERN VIRGINIA

CITY           SKY/WX    TMP DP  RH WIND       PRES   REMARKS
WASH NATIONAL  CLOUDY    59  56  89 NW8       29.99R
DULLES         CLOUDY    58  54  86 N7        30.00R
FORT BELVOIR   LGT RAIN  60  56  87 NW5       29.99R
QUANTICO       CLOUDY    61  58  90 N6        29.99R
FREDERICKSBRG* CLOUDY    61  58  89 N5        29.98R
STAFFORD*      CLOUDY    59  58  97 N5        30.02S
WARRENTON      CLOUDY    60  51  71 N8        29.99S
CULPEPER*      MOCLDY    60  54  82 N6        30.01R
MANASSAS*        N/A    N/A N/A N/A NW7       30.00R
LEESBURG*      CLOUDY    59  57  94 N3        30.02R
WINCHESTER     CLOUDY    55  48  76 NW10G17   30.02S
FRONT ROYAL*   CLOUDY    57  52  82 NW3       30.01S
LURAY*         CLOUDY    59  52  77 N3        30.02R
$$

VAZ048-049-060>072-079>083-290800-
CENTRAL AND SOUTH CENTRAL VIRGINIA

CITY           SKY/WX    TMP DP  RH WIND       PRES   REMARKS
RICHMOND       PTCLDY    61  56  83 N13       29.96R
CHESTERFIELD*  PTSUNNY  N/A N/A N/A N9        29.97S
PETERSBURG*    PTCLDY    57  53  86 CALM      29.96S
HANOVER        CLEAR     61  54  77 VRB5      29.98R
TAPPAHANNOCK*  PTCLDY    59  59 100 CALM      29.97R
QUINTON*       FAIR      60  59  97 N3        29.95R
CHARLOTTSVILLE CLEAR     59  52  77 CALM      29.99R
GORDONSVILLE*  SUNNY     51  51 100 CALM      29.99R FOG
ORANGE*        CLEAR     55  52  88 CALM      30.01R
LOUISA*        CLOUDY    61  59  94 N5        29.99R
BUMPASS*       FAIR      59  56  88 NW7       29.99R
FARMVILLE*     CLEAR     57  57 100 N3        29.97R
CREWE*         FAIR      55  55 100 CALM      29.97S
FORT PICKETT*  FAIR      59  55  88 NW8       29.97R
CHASE CITY*    FAIR      53  51  94 N3        29.97S
CLARKSVILLE*   FAIR      59  52  77 N5        29.96S
SOUTH HILL*    CLEAR     55  55  99 N6        30.01S
LAWRENCEVILLE* FAIR      59  55  84 MISG      29.95S
EMPORIA*       PTCLDY    59  54  82 NW8       29.95S
$$

VAZ088>098-290800-
SOUTHEAST VIRGINIA

CITY           SKY/WX    TMP DP  RH WIND       PRES   REMARKS
NORFOLK        CLEAR     59  55  87 N10       29.93R
VIRGINIA BEACH CLEAR     57  54  89 N8        29.92R
NORFOLK NAVAL  MOCLDY    59  54  83 N13       29.95R
WEST POINT*    PTCLDY    56  56  99 CALM      29.97R
SALUDA*        FAIR      56  55  97 N6        29.95R
NEWPORT NEWS   CLEAR     57  55  93 NE6       29.94R
LANGLEY AFB    NOT AVBL
FORT EUSTIS    DRIZZLE   57  55  94 N3        29.92R
WILLIAMSBURG*  PTCLDY    61  59  94 CALM      29.96R
HR EXEC AP*    FAIR      50  46  87 NE5       29.92R
FRANKLIN*      PTCLDY    56  55  95 CALM      29.94R
US460-WAKEFLD  PTCLDY    59  57  93 VRB3      29.94S
$$

VAZ020-022-025-037-045-290800-
WEST CENTRAL AND SOUTHWEST VIRGINIA

CITY           SKY/WX    TMP DP  RH WIND       PRES   REMARKS
STAUNTON*      CLEAR     55  49  82 N5        30.03S
WAYNESBORO*    SUNNY     54  51  90 N10       30.02R
HOT SPRINGS VA CLOUDY    50  46  87 NW12G18   30.07R
LYNCHBURG      CLEAR     50  48  93 CALM      30.01R
DANVILLE       CLEAR     56  51  84 NW6       29.98S
SOUTH BOSTON*  FAIR      57  52  83 NW5       29.98R
MARTINSVILLE   CLEAR     47  46  95 CALM      30.03S
ROANOKE        CLEAR     59  50  72 NW9       30.04R
BLACKSBURG     PTCLDY    55  51  88 W5        30.08S
DUBLIN*        CLOUDY    58  53  84 NW6       30.07S
MARION*        CLOUDY    55  52  88 CALM      30.10R
HILLSVILLE*    CLOUDY    53  49  87 CALM      30.05S
RICHLANDS*     HVY RAIN  52  52 100 NW3       30.08F
WISE*          CLOUDY    54  54 100 CALM      30.09F
ABINGDON*      CLEAR     52  50  91 CALM      30.07S
$$

MDZ021>025-VAZ099-100-290800-
SOUTHERN MARYLAND AND THE DELMARVA PENINSULA

CITY           SKY/WX    TMP DP  RH WIND       PRES   REMARKS
PATUXENT RIVER MOCLDY    56  54  93 N7        29.97R
BAY BRIDGE APT CLOUDY    55  52  88 N5        29.97S FOG
LEONARDTOWN    CLOUDY    55  52  88 CALM      29.99R
DOVER          MOCLDY    49  49 100 NW5       29.95R
GEORGETOWN     CLOUDY    52  48  86 N7        29.95R
EASTON         MOCLDY    55  51  87 N3        30.00R
CAMBRIDGE      CLEAR     54  52  94 N6        29.96R
SALISBURY      CLEAR     52  52 100 N6        29.94S
OCEAN CITY     MOCLDY    52  47  83 N9        29.95R
WALLOPS ISLAND PTCLDY    55  52  89 N13       29.94R
ACCOMACK*      PTCLDY    57  50  78 N8        29.93R
$$

NCZ012>017-030>032-290800-
NORTH CENTRAL AND EASTERN NORTH CAROLINA

CITY           SKY/WX    TMP DP  RH WIND       PRES   REMARKS
ROANOKE RAPIDS FAIR      55  55 100 CALM      29.94S
RALEIGH        PTCLDY    60  49  66 CALM      29.96S
ELIZABETH CITY PTCLDY    59  57  93 N7        29.92R
AHOSKIE*         N/A     51  50  99 CALM      29.94R FOG
EDENTON*       PTCLDY    58  57  97 CALM      29.93R
CURRITUCK*     PTCLDY    59  59 100 CALM      29.93R
KILL DEVIL HLS NOT AVBL
MANTEO         PTCLDY    58  58  97 N5        29.92R
CAPE HATTERAS  CLEAR     63  60  90 NW5       29.89F FOG
TARBORO*       NOT AVBL
GOLDSBORO      PTCLDY    57  57 100 CALM      29.92S
WASHINGTON     FOG       55  55 100 CALM      29.93S VSB 1/4
GREENVILLE     FOG       54  54 100 CALM      29.95S VSB 1
NEW BERN       FOG       53  53 100 CALM      29.93R VSB 1/4
WILMINGTON     MOCLDY    61  60  97 CALM      29.92F
$$

VAZ048-290800-
ELSEWHERE

CITY           SKY/WX    TMP DP  RH WIND       PRES   REMARKS
HARRISBURG PA  MOCLDY    52  45  77 N14       30.01R
BALTIMORE      MOCLDY    59  52  77 N8        29.98R
ANNAPOLIS      CLOUDY    58  53  84 NW6       29.97R
ANDREWS AFB    CLOUDY    57  54  88 N8        29.97R
PHILADELPHIA   CLOUDY    48  46  93 N6        29.96S
HENDERSON NC   CLEAR     57  48  73 N6        29.96S
GREENSBORO     CLEAR     57  50  77 CALM      29.98S
ROCKY MOUNT    CLEAR     60  53  77 NW6       29.93F
$$

VAZ100-290800-
MARINE

STATION/POSITION TIME  TEMP    WIND        PRES    WAVE   SWELL
                       AIR SEA DIR/SP/G            HT/PER HT/PER
                 (UTC) (F)     (DEG/KT/KT) (MB)    (FT/S) (FT/S)
CAPE MAY NJ      0648   47 46  350/  3/  5 1013.9R
LEWES DE         0648   47 47  350/  8/  9 1014.2R
OCEAN-CITY-INLET 0648           20/ 12/ 17   N/A
WACHAPREAGUE VA  0648   57 59  360/  5/  9 1012.8R
THOMAS POINT MD  0700   54 46   20/  5/  5   N/A
GOOSES REEF MD   0650   50      30/  4/  4 1015.5R
COVE POINT MD    0648   51     350/  8/  9 1015.4R
SOLOMONS ISLAND  0648   57 48  350/  5/  6   N/A
BISHOPS HEAD MD  0648   55 55  360/  5/  8 1014.6R
PINEY POINT MD   0648           20/ 10/ 12   N/A
POTOMAC MD       0650   56      10/ 14/ 17 1013.6R
CAMBRIDGE MD     0648   54 49  340/  5/  5 1013.9R
LEWISETTA VA     0648   56 50  360/  4/  6 1014.4R
RAPPAHANNOCK LGT 0648          350/ 12/ 13 1014.2R
STINGRAY PT      0650   53      30/ 10/ 12 1013.6R
YORK RVR RNG VA  0648   57      20/ 11/ 12 1013.0R
YORKTOWN VA      0648   59 51   10/  8/ 12 1013.4R
JAMESTOWN VA     0650   57     320/  4/  6   N/A
DOMINION TERM VA 0648   59      10/  5/  7 1013.7R
KIPTOPEKE VA     0648      51   10/  4/  5   N/A
CHES BAY BRIDGE  0648   55 50  360/ 11/ 12 1013.4R
CAPE HENRY VA    0648   55     320/  7/  9   N/A
WILLOUBY STN VA  0648   60      10/ 11/ 13 1014.6R
S CRANEY ISL VA  0648   58     350/  8/ 10 1013.3R
CAPE HENRY BUOY  0642      50                N/A     3/ 9   2/11
CAPE CHARLES BUO 0651      49                N/A     2/10   2/11
OFFSHORE WE BUOY 0651      51                N/A     3/10   2/11
64NM E OF VA BCH 0650   52 49  360/ 16/ 19 1012.1R   4/ 8   3/ 8
DUCK PIER NC     0648   59 47  310/  7/  8 1012.4R
44100 DUCK FRF   0635      52                N/A     3/10   2/11
44056 DUCK FRF   0630      49                N/A     2/10   2/11
OREGON INLET NC  0648          300/  7/  9   N/A
HATTERAS NC      0648   62 63  320/  6/  7 1011.9F
DIAMOND SHLS NC  0650   68 74  320/ 14/ 16 1012.2F   6/10   5/10
CAPE LOOKOUT NC  0600   65     290/  3/  4 1012.6S
$$



USA.gov is the U.S. government's official web portal to all federal, state and local government web resources and services.